{"data":{"norad_id":47592,"epoch":"2026-07-03T07:50:57.214176Z","epoch_age_seconds":6866517,"freshness":"OLD","line1":"1 47592U 21009AW  26184.32705109  .05374508  12213-4  65662-3 0  9990","line2":"2 47592  53.0123 137.6159 0004226 240.7525 119.3097 16.35505785299403","mean_motion":16.35505785,"eccentricity":0.0004226,"inclination_deg":53.0123,"raan_deg":137.6159,"arg_perigee_deg":240.7525,"mean_anomaly_deg":119.3097,"bstar":0.00065662,"rev_number":29940,"period_min":88.046157537743,"perigee_km":175.01457388285,"apogee_km":180.55563924732,"semimajor_km":6555.9221065651,"source":"CELESTRAK","updated_at":"2026-07-04T09:00:26.449927Z"}}